Home   Weather   Plettenberg   Past weeks

Flag for Germany Past Weather in Plettenberg, North Rhine-Westphalia, Germany — Yesterday and Last 2 Weeks

Now
50 °F

Sunny.


Feels Like: 48 °F
Forecast: 49 / 65 °F
Wind: 5 mph from South

Location: Dortmund / Wickede

Current Time: Sep 27, 2016 at 9:12:27 AM

Latest Report: Sep 27, 2016 at 8:20 AM


Visibility: 10 mi

Pressure: 30.27 "Hg

Humidity: 82%

Dew Point: 45 °F

Location of PlettenbergLocation

Past Weather in Plettenberg — Graph

°F

Plettenberg Temperature Yesterday

Maximum temperature yesterday: 70 °F (at 3:50 PM)
Minimum temperature yesterday: 52 °F (at 7:20 AM)
Average temperature yesterday: 60 °F

High & Low Weather Summary for the Past Weeks

 TemperatureHumidityPressure
High90 °F (Sep 13, 3:20 PM)88% (Sep 16, 6:20 AM)30.27 "Hg (Sep 16, 6:20 AM)
Low45 °F (Sep 21, 6:20 AM)23% (Sep 15, 2:50 PM)29.80 "Hg (Sep 15, 3:50 PM)
Average65 °F57%30.06 "Hg
* Reported Sep 12 7:20 AM — Sep 27 7:50 AM, Plettenberg, Weather by CustomWeather, © 2016

Note: Actual official high and low records may vary slightly from our data, if they occured in-between our weather recording intervals... More about our weather records

Advertising

Plettenberg Weather History for the Previous 24 Hours

Scroll right to see more
 ConditionsComfort  
Time TempWeatherWind HumidityBarometerVisibility
7:50 AM
Tue, Sep 27
48 °FSunny.6 mph82%30.27 "Hg10 mi
7:20 AM48 °FClear.6 mph87%30.27 "Hg10 mi
6:50 AM50 °FClear.6 mph82%30.27 "Hg10 mi
6:20 AM50 °FClear.3 mph82%30.24 "Hg10 mi
5:50 AM52 °FClear.5 mph77%30.24 "Hg10 mi
5:20 AM50 °FClear.3 mph82%30.24 "Hg10 mi
9:50 PM
Mon, Sep 26
57 °FClear.2 mph59%30.24 "Hg10 mi
9:20 PM59 °FClear.3 mph59%30.24 "Hg10 mi
8:50 PM59 °FClear.7 mph55%30.21 "Hg10 mi
8:20 PM59 °FClear.5 mph59%30.21 "Hg10 mi
7:50 PM59 °FClear.2 mph59%30.21 "Hg10 mi
7:20 PM61 °FClear.No wind52%30.21 "Hg10 mi
6:50 PM61 °FSunny.2 mph52%30.18 "Hg10 mi
6:20 PM64 °FSunny.3 mph46%30.18 "Hg10 mi
5:50 PM66 °FScattered clouds.5 mph43%30.18 "HgN/A
5:20 PM68 °FSunny.3 mph38%30.18 "Hg10 mi
4:50 PM68 °FScattered clouds.6 mph38%30.18 "HgN/A
4:20 PM68 °FScattered clouds.7 mph35%30.18 "HgN/A
3:50 PM70 °FPassing clouds.6 mph35%30.18 "HgN/A
3:20 PM68 °FPassing clouds.6 mph38%30.21 "HgN/A
2:50 PM66 °FPassing clouds.5 mph37%30.21 "HgN/A
2:20 PM66 °FSunny.5 mph43%30.21 "Hg10 mi
1:50 PM64 °FClear.3 mph49%30.21 "HgN/A
1:20 PM66 °FScattered clouds.2 mph49%30.21 "HgN/A
12:50 PM63 °FScattered clouds.2 mph59%30.21 "HgN/A
12:20 PM63 °FPartly sunny.2 mph59%30.21 "HgN/A
11:50 AM64 °FPassing clouds.2 mph56%30.21 "HgN/A
11:20 AM59 °FSunny.2 mph63%30.21 "Hg10 mi
10:50 AM59 °FSunny.3 mph68%30.21 "Hg10 mi
10:20 AM57 °FSunny.3 mph72%30.21 "Hg10 mi
9:50 AM57 °FSunny.5 mph72%30.21 "Hg10 mi
9:20 AM55 °FSunny.6 mph77%30.21 "Hg10 mi
Weather by CustomWeather, © 2016

See weather overviewHow to use our weather pages